Elkins, WV

3:18 PM EST on February 20, 2017 (GMT -0500)
Elkins-Randolph County

Weather History for KEKN - December, 2013

Change the Weather History Date:

Tuesday, December 3, 2013

  Actual Average Record
Temperature  
Mean Temperature 42 °F 36 °F  
Max Temperature 56 °F 46 °F 72 °F (1982)
Min Temperature 28 °F 26 °F -4 °F (1976)
Degree Days  
Heating Degree Days 23 29  
Month to date heating degree days 79 86  
Since 1 July heating degree days 1374 1370  
Cooling Degree Days 0 0  
Month to date cooling degree days 0 0  
Year to date cooling degree days 533 475  
Moisture  
Dew Point 32 °F    
Average Humidity 73    
Maximum Humidity 96    
Minimum Humidity 50    
Precipitation  
Precipitation 0.00 in 0.11 in 0.89 in (1901)
Month to date precipitation 0.00 0.34  
Year to date precipitation 39.74 43.01  
Snow  
Snow 0.00 in - - ()
Month to date snowfall 0.0  
Since 1 September snowfall 6.9  
Snow Depth 0.00 in    
Sea Level Pressure  
Sea Level Pressure 29.93 in    
Wind  
Wind Speed 1 mph (NNW)    
Max Wind Speed 8 mph    
Max Gust Speed 10 mph    
Visibility 10 miles    
Events      
T = Trace of Precipitation, MM = Missing Value Source: NWS Daily Summary

Daily Weather History Graph

Daily Weather History Graph

Search for Another Location

Airport or City:

Trip Planner

Search our weather history database for the weather conditions in past years. The results will help you decide how hot, cold, wet, or windy it might be!

Date:

Astronomy

Dec. 03, 2013 Rise Set
Actual Time 7:21 AM EST 4:57 PM EST
Civil Twilight 6:51 AM EST 5:27 PM EST
Nautical Twilight 6:18 AM EST 6:00 PM EST
Astronomical Twilight 5:46 AM EST 6:32 PM EST
Moon 7:49 AM EST (12/3) 5:59 PM EST (12/3)
Length of Visible Light 10h 35m
Length of Day
9h 36m
New Moon, 1% of the Moon is Illuminated
Dec 3
New Moon
Dec 9
First Quarter
Dec 17
Full
Dec 25
Last Quarter
Jan 1
New

Hourly Weather History & Observations

Time (EST) Temp. Dew Point Humidity Pressure Visibility Wind Dir Wind Speed Gust Speed Precip Events Conditions
12:51 AM 28.9 °F 26.1 °F 89% 29.89 in 10.0 mi Calm Calm - N/A   Scattered Clouds
1:51 AM 30.0 °F 28.0 °F 92% 29.89 in 8.0 mi Calm Calm - N/A   Overcast
2:51 AM 30.9 °F 28.9 °F 92% 29.90 in 9.0 mi Calm Calm - N/A   Overcast
3:47 AM 30.2 °F 28.4 °F 93% 29.84 in 10.0 mi Calm Calm - N/A   Overcast
3:51 AM 30.9 °F 28.9 °F 92% 29.89 in 9.0 mi Calm Calm - N/A   Overcast
4:51 AM 32.0 °F 30.0 °F 92% 29.91 in 10.0 mi Calm Calm - N/A   Overcast
5:31 AM 33.8 °F 30.2 °F 87% 29.87 in 10.0 mi Calm Calm - N/A   Overcast
5:51 AM 33.1 °F 30.9 °F 92% 29.93 in 10.0 mi Calm Calm - N/A   Overcast
6:51 AM 33.1 °F 30.9 °F 92% 29.94 in 9.0 mi Calm Calm - N/A   Overcast
7:51 AM 34.0 °F 32.0 °F 92% 29.94 in 10.0 mi Calm Calm - N/A   Overcast
8:51 AM 35.1 °F 33.1 °F 92% 29.96 in 10.0 mi Calm Calm - N/A   Clear
9:51 AM 41.0 °F 35.1 °F 79% 29.95 in 10.0 mi Calm Calm - N/A   Clear
10:51 AM 48.0 °F 37.0 °F 66% 29.96 in 10.0 mi Calm Calm - N/A   Clear
11:51 AM 54.0 °F 37.9 °F 55% 29.93 in 10.0 mi NNW 3.5 mph - N/A   Clear
12:51 PM 55.0 °F 37.0 °F 51% 29.90 in 10.0 mi North 3.5 mph - N/A   Mostly Cloudy
1:51 PM 55.0 °F 37.0 °F 51% 29.91 in 10.0 mi Calm Calm - N/A   Overcast
2:51 PM 55.9 °F 37.0 °F 49% 29.92 in 10.0 mi Calm Calm - N/A   Mostly Cloudy
3:51 PM 53.1 °F 35.1 °F 50% 29.93 in 10.0 mi South 4.6 mph - N/A   Clear
4:51 PM 45.0 °F 35.1 °F 68% 29.94 in 10.0 mi Calm Calm - N/A   Clear
5:51 PM 39.0 °F 33.1 °F 79% 29.94 in 10.0 mi Calm Calm - N/A   Clear
6:51 PM 35.1 °F 30.0 °F 82% 29.96 in 10.0 mi Calm Calm - N/A   Clear
7:51 PM 35.1 °F 32.0 °F 89% 29.98 in 10.0 mi Calm Calm - N/A   Clear
8:51 PM 34.0 °F 32.0 °F 92% 29.97 in 10.0 mi Calm Calm - N/A   Clear
9:51 PM 34.0 °F 30.9 °F 89% 29.98 in 10.0 mi Calm Calm - N/A   Clear
10:51 PM 33.1 °F 30.9 °F 92% 29.98 in 10.0 mi Calm Calm - N/A   Clear
11:51 PM 34.0 °F 30.9 °F 89% 29.97 in 10.0 mi Calm Calm - N/A   Clear